Galesburg, IL

7:08 PM CDT on August 24, 2019 (GMT -0500)
Galesburg Municipal

Weather History for KGBG - May, 2019

Change the Weather History Date:

Sunday, May 12, 2019

  Actual Average Record
Temperature  
Mean Temperature 46 °F -  
Max Temperature 50 °F 70 °F 95 °F (1956)
Min Temperature 41 °F 49 °F 33 °F (2013)
Degree Days  
Heating Degree Days 18    
Moisture  
Dew Point 42 °F    
Average Humidity 86    
Maximum Humidity 100    
Minimum Humidity 71    
Precipitation  
Precipitation 0.09 in - - ()
Sea Level Pressure  
Sea Level Pressure 29.88 in    
Wind  
Wind Speed 6 mph (North)    
Max Wind Speed 10 mph    
Max Gust Speed -    
Visibility 10 miles    
Events Rain    
Averages and records for this station are not official NWS values.
T = Trace of Precipitation, MM = Missing Value Source: NWS Daily Summary

Daily Weather History Graph

Daily Weather History Graph

Search for Another Location

Airport or City:

Astronomy

May. 12, 2019 Rise Set
Actual Time 5:47 AM CDT 8:09 PM CDT
Civil Twilight 5:16 AM CDT 8:40 PM CDT
Nautical Twilight 4:38 AM CDT 9:18 PM CDT
Astronomical Twilight 3:55 AM CDT 10:01 PM CDT
Moon 1:07 PM CDT (5/12) 2:31 AM CDT (5/12)
Length of Visible Light 15h 24m
Length of Day
14h 22m
First Quarter, 58% of the Moon is Illuminated
May 12
First Quarter
May 18
Full
May 26
Last Quarter
Jun 3
New
Jun 10
First Quarter

Hourly Weather History & Observations

Time (CDT) Temp. Windchill Dew Point Humidity Pressure Visibility Wind Dir Wind Speed Gust Speed Precip Events Conditions
12:15 AM 46.0 °F 42.5 °F 40.8 °F 82% 29.93 in 10.0 mi NE 6.9 mph - N/A   Overcast
12:35 AM 45.7 °F 42.0 °F 41.0 °F 84% 29.92 in 10.0 mi NE 6.9 mph - N/A   Overcast
12:55 AM 45.7 °F 42.0 °F 41.0 °F 84% 29.92 in 10.0 mi NE 6.9 mph - N/A   Overcast
1:15 AM 45.7 °F 42.7 °F 40.8 °F 83% 29.91 in 10.0 mi NE 5.8 mph - N/A   Overcast
1:35 AM 45.7 °F 42.0 °F 41.0 °F 84% 29.91 in 10.0 mi ENE 6.9 mph - N/A   Overcast
1:55 AM 45.5 °F 41.8 °F 41.2 °F 85% 29.90 in 10.0 mi NE 6.9 mph - N/A   Overcast
2:15 AM 45.5 °F 42.5 °F 41.2 °F 85% 29.90 in 10.0 mi NE 5.8 mph - N/A   Overcast
2:35 AM 45.5 °F 41.8 °F 41.0 °F 84% 29.89 in 10.0 mi NE 6.9 mph - N/A   Overcast
2:55 AM 45.3 °F 41.6 °F 41.2 °F 85% 29.88 in 10.0 mi NE 6.9 mph - N/A   Overcast
3:15 AM 45.1 °F 41.4 °F 41.0 °F 85% 29.88 in 10.0 mi NE 6.9 mph - N/A   Overcast
3:35 AM 45.1 °F 42.8 °F 41.2 °F 86% 29.88 in 10.0 mi NE 4.6 mph - N/A   Overcast
3:55 AM 45.0 °F 41.2 °F 41.4 °F 87% 29.87 in 10.0 mi NE 6.9 mph - N/A   Overcast
4:15 AM 44.8 °F 41.6 °F 41.4 °F 88% 29.87 in 10.0 mi NE 5.8 mph - N/A   Overcast
4:35 AM 44.8 °F 41.6 °F 41.4 °F 88% 29.87 in 10.0 mi NE 5.8 mph - N/A   Overcast
5:15 AM 44.6 °F 41.4 °F 41.2 °F 88% 29.88 in 10.0 mi NE 5.8 mph - N/A   Overcast
5:35 AM 44.6 °F 43.1 °F 41.2 °F 88% 29.88 in 10.0 mi NE 3.5 mph - N/A   Overcast
5:55 AM 44.6 °F 42.2 °F 41.2 °F 88% 29.89 in 10.0 mi NE 4.6 mph - N/A   Overcast
6:15 AM 44.6 °F 42.2 °F 41.4 °F 88% 29.89 in 10.0 mi NE 4.6 mph - N/A   Light Drizzle
6:35 AM 44.6 °F 40.7 °F 41.5 °F 89% 29.88 in 10.0 mi NE 6.9 mph - N/A   Overcast
6:55 AM 44.6 °F 40.2 °F 41.2 °F 88% 29.89 in 10.0 mi NE 8.1 mph - N/A   Overcast
7:15 AM 44.6 °F 40.7 °F 41.5 °F 89% 29.90 in 7.0 mi NE 6.9 mph - N/A   Drizzle
7:35 AM 44.6 °F 40.2 °F 41.7 °F 90% 29.89 in 10.0 mi NE 8.1 mph - N/A   Drizzle
8:15 AM 45.7 °F 42.0 °F 42.4 °F 88% 29.90 in 10.0 mi NE 6.9 mph - N/A   Overcast
8:35 AM 46.0 °F 42.5 °F 42.1 °F 86% 29.89 in 10.0 mi NE 6.9 mph - N/A   Overcast
8:55 AM 46.4 °F 42.9 °F 42.1 °F 85% 29.89 in 10.0 mi ENE 6.9 mph - N/A   Overcast
9:15 AM 46.9 °F - 42.1 °F 83% 29.89 in 10.0 mi ENE 6.9 mph - N/A   Overcast
9:55 AM 47.8 °F - 42.1 °F 80% 29.88 in 10.0 mi NE 6.9 mph - N/A   Overcast
10:15 AM 48.7 °F - 42.1 °F 78% 29.88 in 10.0 mi NE 8.1 mph - N/A   Overcast
10:35 AM 48.2 °F - 41.0 °F 76% 29.88 in 10.0 mi NE 3.5 mph - N/A   Overcast
10:55 AM 48.6 °F - 40.8 °F 75% 29.88 in 10.0 mi ENE 5.8 mph - N/A   Overcast
11:15 AM 49.1 °F - 41.4 °F 75% 29.88 in 10.0 mi ENE 5.8 mph - N/A   Overcast
11:35 AM 48.9 °F - 41.0 °F 74% 29.89 in 10.0 mi ENE 4.6 mph - N/A   Overcast
11:55 AM 48.9 °F - 41.0 °F 74% 29.88 in 10.0 mi NE 4.6 mph - N/A   Overcast
12:15 PM 49.1 °F - 40.6 °F 73% 29.88 in 10.0 mi ENE 4.6 mph - N/A   Overcast
12:35 PM 49.1 °F - 40.8 °F 73% 29.86 in 10.0 mi NE 4.6 mph - N/A   Overcast
12:55 PM 50.2 °F - 41.4 °F 72% 29.85 in 10.0 mi NE 6.9 mph - N/A   Scattered Clouds
1:15 PM 50.9 °F - 41.9 °F 71% 29.84 in 10.0 mi ENE 8.1 mph - N/A Rain Light Rain
1:35 PM 50.2 °F - 41.7 °F 73% 29.85 in 10.0 mi NE 9.2 mph - N/A   Light Drizzle
1:55 PM 50.2 °F - 41.5 °F 72% 29.85 in 10.0 mi NW 6.9 mph - N/A Rain Light Rain
2:15 PM 49.5 °F - 42.4 °F 77% 29.86 in 10.0 mi WNW 3.5 mph - N/A Rain Light Rain
2:35 PM 49.3 °F - 43.0 °F 79% 29.86 in 10.0 mi WNW 4.6 mph - 0.01 in Rain Light Rain
2:55 PM 49.1 °F - 44.2 °F 83% 29.86 in 10.0 mi WNW 4.6 mph - 0.03 in Rain Light Rain
3:15 PM 49.1 °F - 44.8 °F 85% 29.86 in 10.0 mi WNW 6.9 mph - N/A Rain Light Rain
3:35 PM 48.4 °F - 44.2 °F 86% 29.86 in 10.0 mi WNW 6.9 mph - 0.01 in Rain Light Rain
3:55 PM 48.4 °F - 44.6 °F 87% 29.86 in 10.0 mi WNW 5.8 mph - 0.02 in Rain Light Rain
4:15 PM 48.6 °F - 45.3 °F 89% 29.86 in 10.0 mi WNW 6.9 mph - 0.01 in Rain Light Rain
4:35 PM 48.6 °F - 45.1 °F 88% 29.86 in 10.0 mi WNW 8.1 mph - 0.01 in Rain Light Rain
4:55 PM 48.9 °F - 45.5 °F 88% 29.86 in 10.0 mi WNW 8.1 mph - 0.02 in Rain Light Rain
5:15 PM 48.2 °F - 44.2 °F 86% 29.86 in 10.0 mi WNW 8.1 mph - N/A   Drizzle
5:35 PM 47.7 °F - 43.7 °F 86% 29.87 in 10.0 mi West 10.4 mph - N/A Rain Rain
5:55 PM 47.5 °F - 43.3 °F 86% 29.87 in 10.0 mi WNW 6.9 mph - 0.01 in   Drizzle
6:15 PM 46.8 °F - 43.2 °F 87% 29.87 in 10.0 mi WNW 8.1 mph - N/A Rain Rain
6:35 PM 46.6 °F - 43.7 °F 90% 29.87 in 10.0 mi WNW 5.8 mph - N/A Rain Light Rain
6:55 PM 46.8 °F - 44.6 °F 92% 29.87 in 10.0 mi WNW 4.6 mph - 0.01 in   Drizzle
7:15 PM 46.8 °F - 43.9 °F 90% 29.87 in 10.0 mi West 5.8 mph - N/A   Light Drizzle
7:35 PM 46.6 °F - 43.9 °F 90% 29.88 in 10.0 mi West 6.9 mph - N/A Rain Light Rain
7:55 PM 46.6 °F - 43.7 °F 90% 29.88 in 10.0 mi West 4.6 mph - N/A Rain Rain
8:15 PM 46.0 °F 44.8 °F 42.8 °F 88% 29.88 in 10.0 mi West 3.5 mph - N/A   Light Drizzle
8:35 PM 45.5 °F 44.2 °F 43.0 °F 91% 29.89 in 10.0 mi WNW 3.5 mph - N/A   Scattered Clouds
8:55 PM 45.0 °F 43.5 °F 43.0 °F 93% 29.89 in 10.0 mi WNW 3.5 mph - N/A   Clear
9:15 PM 44.4 °F 42.9 °F 42.4 °F 93% 29.90 in 10.0 mi WNW 3.5 mph - N/A   Scattered Clouds
9:35 PM 43.9 °F 41.3 °F 42.8 °F 96% 29.90 in 10.0 mi WNW 4.6 mph - N/A   Mostly Cloudy
9:55 PM 43.7 °F 42.1 °F 42.8 °F 97% 29.91 in 10.0 mi WNW 3.5 mph - N/A   Scattered Clouds
10:15 PM 43.7 °F 42.1 °F 43.2 °F 98% 29.91 in 10.0 mi WNW 3.5 mph - N/A   Mostly Cloudy
10:35 PM 43.3 °F - 43.2 °F 99% 29.91 in 10.0 mi Calm Calm - N/A   Mostly Cloudy
10:55 PM 43.0 °F 41.3 °F 43.0 °F 100% 29.92 in 10.0 mi West 3.5 mph - N/A   Mostly Cloudy
11:15 PM 43.9 °F - 43.9 °F 100% 29.92 in 10.0 mi Calm Calm - N/A   Overcast
11:35 PM 43.2 °F 41.5 °F 43.0 °F 99% 29.92 in 10.0 mi WNW 3.5 mph - N/A   Mostly Cloudy
11:55 PM 41.9 °F 39.0 °F 41.9 °F 100% 29.92 in 7.0 mi West 4.6 mph - N/A   Scattered Clouds